Regional Weather Roundup
Issued by NWS Goodland, KS

Home | Current Version | Previous Version | Graphics & Text | Print | Product List | Glossary On
Versions: 1 2 3 4 5 6 7 8 9 10 11 12 13 14 15 16 17 18 19 20 21 22 23 24 25 26 27 28 29 30 31 32 33 34 35 36 37 38 39 40 41 42 43 44 45 46 47 48 49 50
000
ASUS43 KGLD 272159
RWRGLD

GOODLAND FORECAST AREA HOURLY WEATHER ROUNDUP
NATIONAL WEATHER SERVICE GOODLAND KS
400 PM MDT MON MAR 27 2017

...OFFICIAL OBSERVATIONS...

CITY           SKY/WX    TMP DP  RH WIND       PRES   REMARKS
GOODLAND KS    SUNNY     65  35  33 SE9       29.85F
HILL CITY KS   SUNNY     63  43  48 SE6       29.89F
IMPERIAL NEB   MOSUNNY   63  34  33 S7        29.84F
MCCOOK NEB     MOSUNNY   65  46  50 E17G24    29.85F
AKRON CO       PTSUNNY   62  30  29 S21       29.83F
BURLINGTON CO  CLOUDY    62  40  44 SE14      29.86F
LIMON CO       CLOUDY    58  33  39 S18G29    29.85F
$$

...UNOFFICIAL OBSERVATIONS...

CITY           SKY/WX    TMP DP  RH WIND       PRES   REMARKS
NORTON KS      SUNNY     59  39  47 SE5       29.89F
OBERLIN KS     FAIR      66  36  32 S8        29.91F
SHARON SPRINGS   N/A     65  42  43 S7          N/A
TRENTON NEB      N/A     68  32  26 S6          N/A
YUMA CO        FAIR      61  30  31 SE10      29.83F
$$



USA.gov is the U.S. government's official web portal to all federal, state and local government web resources and services.